Precipitable_Water
1.11 1.07 1.07 1.09 1.09 1.08 1.11 1.15 1.14 1.12 1.08 1.08 1.09 1.14 1.15 1.05 0.90 0.83 0.89 0.90 0.91 0.91 0.93 0.94 0.96 0.97 0.96 0.97 0.96 0.96 0.98 1.01 1.04 1.03 1.02 1.02 1.05 1.07 1.09 1.09 1.05 1.02 1.01 1.02 1.07 1.08 1.06 1.04 1.05 1.08 1.10 1.05 1.04 1.04 1.02 1.00 0.94 0.81 0.78 0.77 0.76 0.80 0.80 0.76 0.67 0.63 0.68 0.75 0.73 0.73 0.80 0.89 0.87 0.93 0.91 0.96 1.02 1.12 1.16 1.25 1.36 1.41 1.48 1.56 1.64
1.12 1.10 1.09 1.10 1.07 1.08 1.12 1.15 1.14 1.11 1.09 1.11 1.11 1.17 1.12 1.00 0.90 0.88 0.86 0.89 0.91 0.92 0.93 0.94 0.96 0.98 0.98 0.98 0.98 0.99 1.01 1.02 1.03 1.03 1.02 1.03 1.02 1.06 1.07 1.07 1.03 1.01 1.01 0.99 1.02 1.03 1.01 0.98 0.99 1.03 1.07 1.01 0.97 0.94 0.94 0.94 0.93 0.87 0.78 0.77 0.78 0.79 0.85 0.78 0.74 0.68 0.62 0.69 0.69 0.76 0.79 0.90 0.85 0.94 0.92 0.93 0.98 1.08 1.13 1.16 1.27 1.40 1.46 1.54 1.60
1.19 1.14 1.09 1.08 1.06 1.08 1.12 1.14 1.13 1.10 1.09 1.09 1.14 1.18 1.12 1.03 0.96 0.89 0.88 0.90 0.94 0.94 0.94 0.95 0.96 0.99 1.00 1.01 1.01 1.01 1.02 1.02 1.04 1.03 1.03 1.01 0.98 1.01 1.05 1.03 1.02 1.00 1.00 0.99 0.97 0.97 0.95 0.96 0.97 0.99 1.01 0.95 0.93 0.92 0.93 0.91 0.93 0.91 0.88 0.87 0.87 0.90 0.92 0.91 0.83 0.73 0.69 0.68 0.74 0.73 0.78 0.86 0.88 0.89 0.96 1.00 1.04 1.08 1.10 1.16 1.19 1.31 1.43 1.50 1.56
1.27 1.20 1.11 1.07 1.06 1.08 1.11 1.14 1.11 1.09 1.07 1.12 1.18 1.21 1.12 1.03 0.99 0.91 0.89 0.91 0.91 0.95 0.97 0.96 0.97 0.97 0.97 0.98 0.99 0.99 1.01 1.02 1.02 1.01 1.01 0.99 0.96 0.96 1.01 1.02 1.03 1.04 1.02 0.98 0.94 0.91 0.90 0.90 0.91 0.93 0.94 0.91 0.90 0.91 0.94 0.95 0.96 0.98 0.98 0.98 0.98 0.97 0.98 0.98 0.95 0.86 0.79 0.70 0.72 0.74 0.80 0.85 0.89 0.95 1.01 1.04 1.06 1.07 1.12 1.19 1.25 1.25 1.35 1.45 1.49
1.31 1.25 1.14 1.06 1.05 1.08 1.11 1.12 1.10 1.09 1.11 1.17 1.19 1.13 1.04 0.98 0.94 0.89 0.90 0.89 0.91 0.92 0.93 0.95 0.94 0.94 0.93 0.93 0.95 0.97 0.99 1.01 0.99 1.00 1.02 1.02 0.99 1.00 1.04 1.06 1.06 1.06 1.02 0.96 0.90 0.87 0.87 0.88 0.89 0.91 0.94 0.92 0.93 0.94 0.97 0.96 0.96 0.96 0.94 0.95 0.94 0.96 0.97 0.96 0.94 0.91 0.82 0.75 0.74 0.79 0.86 0.90 0.93 0.95 1.02 1.02 1.04 1.09 1.13 1.16 1.22 1.25 1.27 1.38 1.45
1.33 1.28 1.20 1.08 1.04 1.08 1.11 1.11 1.10 1.11 1.12 1.18 1.18 1.08 1.00 0.94 0.89 0.89 0.90 0.88 0.89 0.91 0.92 0.93 0.94 0.93 0.94 0.96 0.96 0.95 0.97 0.98 0.97 0.98 0.99 1.02 1.02 1.05 1.09 1.10 1.09 1.05 0.98 0.92 0.89 0.89 0.89 0.91 0.93 0.96 0.96 0.94 0.94 0.96 0.99 0.98 0.98 0.96 0.95 0.96 0.98 1.00 0.97 0.94 0.93 0.89 0.85 0.81 0.79 0.77 0.85 0.87 0.89 0.93 1.02 1.08 1.05 1.03 1.07 1.13 1.21 1.26 1.26 1.27 1.36
1.37 1.29 1.22 1.09 1.06 1.11 1.14 1.12 1.12 1.13 1.17 1.22 1.20 1.09 0.99 0.91 0.87 0.87 0.90 0.90 0.91 0.91 0.92 0.91 0.93 0.92 0.93 0.92 0.91 0.91 0.92 0.94 0.95 0.96 0.98 1.01 1.04 1.07 1.10 1.10 1.07 1.03 0.97 0.95 0.94 0.94 0.94 0.95 0.96 0.98 0.97 0.97 0.96 0.96 0.97 0.97 0.98 0.97 0.99 1.00 1.04 1.03 0.96 0.92 0.91 0.87 0.85 0.82 0.80 0.83 0.85 0.91 0.93 0.91 1.02 1.12 1.12 1.12 1.07 1.06 1.06 1.20 1.27 1.26 1.25
1.39 1.28 1.21 1.10 1.07 1.14 1.19 1.19 1.17 1.20 1.27 1.26 1.17 1.04 0.93 0.87 0.86 0.89 0.92 0.93 0.94 0.94 0.92 0.91 0.91 0.91 0.90 0.90 0.90 0.91 0.91 0.92 0.94 0.96 0.99 1.02 1.07 1.09 1.10 1.07 1.03 1.01 1.00 1.01 0.99 0.97 0.96 0.96 0.98 0.99 1.00 1.01 1.01 1.00 0.98 0.95 0.97 0.96 1.01 1.03 1.04 1.00 0.94 0.92 0.89 0.87 0.85 0.82 0.79 0.82 0.88 0.87 0.92 1.02 1.08 1.10 1.07 1.08 1.13 1.09 1.01 1.05 1.14 1.22 1.25
1.42 1.31 1.22 1.11 1.12 1.21 1.26 1.25 1.22 1.28 1.30 1.24 1.11 0.96 0.88 0.86 0.89 0.91 0.92 0.92 0.92 0.93 0.95 0.94 0.93 0.92 0.93 0.91 0.90 0.92 0.92 0.94 0.96 0.98 1.00 1.04 1.08 1.08 1.07 1.05 1.03 1.01 1.01 1.01 0.99 0.97 0.96 0.97 1.00 1.02 1.04 1.04 1.03 1.01 1.01 1.01 0.99 0.95 0.99 1.03 1.02 0.99 0.94 0.92 0.90 0.88 0.86 0.82 0.80 0.88 0.88 0.87 0.91 0.97 1.00 1.03 1.03 1.03 1.11 1.14 1.08 1.11 1.17 1.17 1.20
1.40 1.32 1.24 1.18 1.22 1.28 1.34 1.34 1.30 1.31 1.27 1.14 1.00 0.88 0.86 0.87 0.90 0.91 0.91 0.91 0.92 0.95 0.94 0.96 0.96 0.95 0.93 0.92 0.92 0.94 0.96 0.97 0.98 1.01 1.04 1.05 1.05 1.05 1.05 1.04 1.04 1.03 1.01 0.99 0.96 0.96 0.97 0.98 1.00 1.02 1.02 1.02 1.02 1.02 1.02 1.03 1.05 1.05 1.03 1.03 1.01 0.98 0.95 0.91 0.89 0.88 0.86 0.82 0.83 0.86 0.86 0.86 0.89 0.96 1.02 1.09 1.15 1.17 1.14 1.13 1.07 1.11 1.13 1.12 1.16
1.39 1.35 1.30 1.31 1.36 1.41 1.46 1.45 1.37 1.27 1.21 1.09 0.92 0.84 0.86 0.89 0.89 0.89 0.91 0.91 0.91 0.92 0.94 0.94 0.94 0.94 0.93 0.93 0.94 0.97 0.98 0.99 1.00 1.02 1.05 1.08 1.07 1.05 1.03 1.04 1.06 1.04 1.03 1.00 0.96 0.94 0.96 1.00 1.01 1.03 1.03 1.02 1.01 1.01 1.01 1.01 1.03 1.04 1.06 1.05 1.04 1.00 0.94 0.91 0.90 0.91 0.89 0.88 0.90 0.90 0.89 0.89 0.91 0.96 1.00 1.04 1.09 1.11 1.14 1.15 1.13 1.12 1.07 1.02 0.96
1.34 1.33 1.33 1.39 1.45 1.48 1.45 1.39 1.29 1.22 1.14 0.98 0.85 0.86 0.87 0.87 0.86 0.87 0.88 0.89 0.90 0.93 0.94 0.94 0.94 0.94 0.93 0.95 0.97 0.99 1.00 1.02 1.00 1.01 1.03 1.06 1.09 1.08 1.07 1.05 1.05 1.03 1.02 1.01 1.01 1.00 0.99 1.00 1.02 1.03 1.02 1.00 0.99 0.98 0.98 0.98 0.98 0.99 1.00 1.00 1.01 1.03 1.05 1.00 0.94 0.92 0.93 0.91 0.90 0.92 0.94 0.94 0.94 0.97 0.98 1.00 1.02 1.06 1.10 1.15 1.14 1.11 1.08 1.05 1.04
1.32 1.31 1.37 1.43 1.47 1.47 1.45 1.40 1.32 1.18 1.01 0.87 0.86 0.88 0.87 0.85 0.86 0.87 0.87 0.90 0.93 0.94 0.96 0.98 0.98 1.00 1.00 0.99 0.98 1.00 1.02 1.06 1.04 1.03 1.04 1.05 1.07 1.09 1.08 1.07 1.05 1.03 1.03 1.02 1.02 1.04 1.03 1.02 1.01 1.02 1.03 1.01 1.00 0.99 0.98 0.97 0.98 0.99 0.99 1.00 1.01 1.02 1.04 1.06 1.09 1.08 1.05 0.99 0.96 0.96 0.99 1.00 0.98 0.98 1.01 1.02 1.09 1.06 1.08 1.08 1.13 1.15 1.14 1.10 1.09
1.32 1.32 1.37 1.42 1.45 1.44 1.43 1.37 1.28 1.12 0.93 0.87 0.88 0.89 0.87 0.85 0.87 0.90 0.92 0.95 0.96 0.98 1.01 1.05 1.10 1.12 1.13 1.11 1.07 1.07 1.07 1.09 1.09 1.08 1.07 1.07 1.06 1.07 1.08 1.07 1.05 1.04 1.03 1.04 1.06 1.06 1.05 1.03 1.01 1.00 1.03 1.02 0.99 0.97 0.97 0.96 0.96 0.97 0.97 0.96 0.97 1.00 1.02 1.04 1.08 1.11 1.11 1.05 1.03 1.01 1.06 1.09 1.04 1.05 1.08 1.11 1.07 1.05 1.07 1.06 1.12 1.14 1.14 1.13 1.20
1.32 1.35 1.43 1.48 1.50 1.44 1.37 1.31 1.20 1.05 0.92 0.90 0.91 0.89 0.88 0.87 0.90 0.94 0.96 0.97 0.99 1.04 1.12 1.16 1.18 1.20 1.20 1.17 1.12 1.10 1.11 1.13 1.13 1.12 1.11 1.11 1.10 1.09 1.08 1.06 1.03 1.03 1.06 1.08 1.08 1.07 1.08 1.07 1.04 1.02 1.03 1.02 1.00 0.98 0.96 0.95 0.96 0.95 0.94 0.92 0.93 0.95 0.97 1.02 1.08 1.10 1.09 1.10 1.11 1.13 1.15 1.17 1.14 1.13 1.14 1.16 1.15 1.16 1.17 1.16 1.18 1.19 1.22 1.26 1.25
1.35 1.39 1.40 1.43 1.39 1.38 1.30 1.21 1.16 1.01 0.91 0.91 0.91 0.88 0.88 0.89 0.92 0.99 1.01 1.04 1.12 1.19 1.22 1.22 1.21 1.21 1.20 1.18 1.15 1.11 1.16 1.19 1.18 1.16 1.15 1.15 1.14 1.11 1.07 1.03 1.01 1.03 1.04 1.06 1.07 1.09 1.09 1.05 1.02 1.02 1.03 1.02 1.00 0.99 0.98 0.97 0.95 0.92 0.88 0.86 0.89 0.93 0.98 1.07 1.11 1.13 1.13 1.14 1.17 1.18 1.18 1.17 1.16 1.15 1.15 1.16 1.19 1.22 1.21 1.23 1.25 1.23 1.18 1.13 1.08
1.38 1.47 1.45 1.39 1.35 1.30 1.24 1.17 1.09 0.95 0.89 0.89 0.89 0.88 0.89 0.93 0.98 1.08 1.11 1.15 1.15 1.16 1.18 1.22 1.26 1.28 1.26 1.24 1.18 1.15 1.19 1.23 1.21 1.20 1.18 1.16 1.14 1.11 1.09 1.06 1.04 1.02 1.02 1.05 1.08 1.06 1.01 1.00 1.01 1.01 1.01 0.98 0.98 0.98 0.98 0.96 0.92 0.87 0.85 0.84 0.88 0.92 0.96 1.05 1.10 1.12 1.14 1.17 1.20 1.20 1.19 1.18 1.16 1.15 1.15 1.18 1.22 1.24 1.21 1.13 1.10 1.17 1.11 1.04 1.06
1.37 1.33 1.31 1.34 1.28 1.25 1.22 1.14 1.02 0.94 0.94 0.92 0.93 0.94 1.01 1.11 1.18 1.21 1.16 1.13 1.12 1.17 1.25 1.30 1.33 1.37 1.38 1.32 1.25 1.18 1.20 1.23 1.21 1.20 1.18 1.17 1.17 1.15 1.14 1.08 1.03 1.02 1.03 1.07 1.07 1.00 0.96 0.96 0.99 0.99 0.95 0.93 0.97 0.99 0.99 0.95 0.89 0.87 0.86 0.85 0.86 0.89 0.94 1.02 1.04 1.07 1.13 1.17 1.20 1.19 1.17 1.14 1.13 1.14 1.17 1.20 1.23 1.25 1.20 1.09 1.15 1.17 1.09 1.09 1.03
1.37 1.36 1.34 1.28 1.25 1.24 1.19 1.08 1.00 0.98 0.99 1.04 1.11 1.16 1.21 1.21 1.19 1.18 1.16 1.17 1.18 1.21 1.22 1.22 1.30 1.40 1.40 1.39 1.34 1.23 1.22 1.22 1.22 1.20 1.19 1.19 1.21 1.20 1.17 1.10 1.02 1.02 1.03 1.04 1.03 0.97 0.93 0.94 0.92 0.91 0.92 0.96 0.98 0.99 0.97 0.96 0.92 0.89 0.89 0.89 0.88 0.88 0.94 0.99 0.97 0.98 1.03 1.09 1.14 1.16 1.11 1.11 1.14 1.15 1.18 1.18 1.19 1.24 1.27 1.24 1.24 1.18 1.10 1.10 1.09
1.37 1.35 1.31 1.27 1.25 1.19 1.09 1.01 1.02 1.08 1.15 1.22 1.26 1.27 1.30 1.30 1.26 1.23 1.24 1.27 1.27 1.29 1.27 1.20 1.12 1.06 1.08 1.17 1.24 1.29 1.27 1.26 1.25 1.21 1.20 1.21 1.22 1.20 1.17 1.08 1.00 1.00 1.02 1.00 0.95 0.92 0.90 0.88 0.89 0.90 0.92 0.96 0.98 0.99 0.98 0.98 0.93 0.93 0.96 0.93 0.90 0.89 0.99 0.97 0.97 0.99 1.01 1.07 1.10 1.11 1.09 1.11 1.10 1.12 1.14 1.15 1.18 1.23 1.27 1.28 1.28 1.24 1.17 1.13 1.12
1.39 1.33 1.25 1.20 1.15 1.09 1.08 1.13 1.20 1.25 1.26 1.24 1.28 1.33 1.35 1.33 1.33 1.30 1.32 1.38 1.35 1.28 1.20 1.16 1.15 1.12 1.10 1.11 1.15 1.31 1.40 1.32 1.28 1.24 1.22 1.21 1.20 1.15 1.10 1.04 1.01 1.00 0.99 0.96 0.93 0.90 0.86 0.84 0.86 0.91 0.94 0.98 1.00 1.00 0.98 0.97 0.97 1.01 1.01 0.96 0.97 0.99 1.00 0.93 0.94 1.00 1.02 1.05 1.07 1.08 1.08 1.07 1.06 1.10 1.11 1.13 1.16 1.20 1.27 1.30 1.30 1.30 1.24 1.16 1.12
1.31 1.24 1.18 1.11 1.09 1.13 1.22 1.29 1.30 1.26 1.27 1.29 1.29 1.29 1.31 1.33 1.33 1.37 1.40 1.36 1.26 1.13 1.11 1.14 1.14 1.09 1.12 1.11 1.10 1.19 1.29 1.35 1.37 1.29 1.23 1.18 1.15 1.12 1.07 1.05 1.05 1.01 0.96 0.95 0.95 0.92 0.87 0.84 0.84 0.90 0.95 0.98 0.99 0.98 0.96 0.98 1.04 1.05 1.03 1.01 1.00 0.98 0.95 0.96 0.97 0.99 1.01 1.04 1.05 1.05 1.04 1.02 1.03 1.05 1.07 1.12 1.15 1.18 1.24 1.29 1.31 1.32 1.32 1.29 1.21
1.24 1.20 1.15 1.14 1.18 1.23 1.27 1.26 1.25 1.26 1.25 1.26 1.25 1.27 1.33 1.30 1.34 1.40 1.33 1.20 1.09 1.05 1.06 1.09 1.09 1.08 1.08 1.07 1.06 1.11 1.17 1.20 1.24 1.23 1.21 1.17 1.13 1.11 1.09 1.07 1.06 1.04 0.98 0.94 0.92 0.89 0.89 0.87 0.88 0.91 0.94 0.96 0.95 0.96 0.99 1.05 1.06 1.03 1.04 1.01 0.96 0.95 0.95 0.95 0.96 0.97 0.99 1.02 1.03 1.02 1.02 1.02 1.02 1.03 1.05 1.10 1.15 1.19 1.25 1.31 1.34 1.34 1.34 1.34 1.36
1.25 1.22 1.22 1.23 1.26 1.27 1.25 1.22 1.21 1.23 1.23 1.24 1.26 1.23 1.26 1.29 1.28 1.25 1.12 1.03 1.00 1.01 1.05 1.08 1.07 1.01 0.98 0.99 1.03 1.07 1.14 1.17 1.18 1.21 1.19 1.16 1.13 1.11 1.08 1.07 1.06 1.04 1.04 0.98 0.93 0.90 0.87 0.87 0.89 0.91 0.92 0.94 0.97 1.01 1.05 1.06 1.03 1.04 1.03 0.98 0.93 0.91 0.92 0.93 0.93 0.95 0.98 1.00 1.01 1.01 1.01 1.03 1.04 1.04 1.07 1.13 1.16 1.19 1.27 1.34 1.37 1.38 1.37 1.36 1.38
1.28 1.26 1.26 1.24 1.17 1.14 1.13 1.14 1.15 1.16 1.20 1.21 1.18 1.18 1.20 1.20 1.12 1.09 1.04 1.00 0.99 0.98 1.00 1.01 0.97 0.94 0.92 0.92 0.94 0.98 1.02 1.07 1.12 1.19 1.19 1.17 1.14 1.10 1.08 1.08 1.07 1.07 1.04 1.00 0.95 0.90 0.88 0.88 0.88 0.89 0.93 0.96 1.01 1.05 1.06 1.03 1.02 1.03 1.01 0.95 0.90 0.86 0.87 0.88 0.90 0.93 0.94 0.95 0.98 1.01 1.02 1.04 1.06 1.09 1.13 1.17 1.20 1.22 1.27 1.35 1.41 1.41 1.43 1.45 1.44
1.39 1.33 1.16 1.05 1.02 1.05 1.05 1.10 1.13 1.14 1.15 1.17 1.16 1.15 1.12 1.10 1.04 1.01 0.99 0.97 0.97 0.95 0.94 0.95 0.94 0.93 0.91 0.93 0.93 0.94 1.01 1.09 1.15 1.19 1.19 1.16 1.13 1.11 1.10 1.10 1.10 1.10 1.07 1.02 0.98 0.93 0.88 0.86 0.87 0.90 0.95 1.00 1.03 1.05 1.05 1.03 1.00 0.97 0.95 0.92 0.85 0.81 0.82 0.83 0.86 0.88 0.90 0.94 0.97 0.98 1.02 1.06 1.07 1.10 1.15 1.15 1.14 1.15 1.21 1.28 1.34 1.36 1.39 1.41 1.39
1.24 1.04 0.95 0.97 1.04 1.08 1.06 1.07 1.09 1.11 1.10 1.10 1.09 1.08 1.05 1.00 0.95 0.92 0.91 0.90 0.90 0.91 0.91 0.92 0.92 0.93 0.92 0.94 0.97 1.01 1.04 1.08 1.10 1.13 1.15 1.12 1.12 1.12 1.11 1.10 1.11 1.10 1.06 1.02 0.99 0.95 0.91 0.90 0.91 0.94 0.99 1.01 1.04 1.08 1.03 0.98 0.93 0.89 0.85 0.84 0.80 0.77 0.79 0.80 0.82 0.84 0.89 0.94 0.97 1.00 1.04 1.08 1.10 1.10 1.08 1.08 1.07 1.13 1.18 1.22 1.27 1.29 1.32 1.37 1.38
0.98 0.97 1.01 1.06 1.10 1.12 1.12 1.12 1.08 1.03 1.01 1.01 0.98 0.97 0.97 0.94 0.89 0.87 0.86 0.88 0.86 0.87 0.89 0.90 0.91 0.92 0.92 0.95 0.97 0.98 0.99 1.03 1.07 1.08 1.09 1.09 1.09 1.12 1.11 1.11 1.08 1.05 1.00 0.99 0.96 0.96 0.95 0.96 0.97 0.98 0.97 0.96 0.99 1.00 0.97 0.94 0.88 0.82 0.78 0.77 0.75 0.74 0.76 0.79 0.82 0.84 0.88 0.94 0.97 1.01 1.04 1.05 1.03 1.05 1.08 1.06 1.05 1.11 1.17 1.18 1.23 1.25 1.27 1.27 1.23
0.99 1.04 1.13 1.16 1.17 1.16 1.12 1.06 1.02 0.99 0.97 0.98 0.96 0.95 0.92 0.90 0.88 0.89 0.93 0.93 0.93 0.91 0.90 0.91 0.94 0.97 0.97 0.94 0.93 0.93 0.97 0.99 1.06 1.13 1.11 1.11 1.09 1.04 1.03 1.04 1.05 1.01 0.98 0.96 0.94 0.98 0.98 0.96 0.92 0.90 0.89 0.88 0.90 0.92 0.90 0.88 0.84 0.79 0.74 0.72 0.71 0.70 0.71 0.72 0.71 0.74 0.80 0.86 0.89 0.92 0.95 1.00 1.01 1.05 1.06 1.04 1.03 1.08 1.17 1.15 1.19 1.23 1.22 1.22 1.17
1.05 1.10 1.15 1.17 1.15 1.06 1.00 0.97 0.98 0.96 0.94 0.92 0.91 0.91 0.93 0.91 0.89 0.86 0.86 0.91 0.94 0.96 0.96 0.94 0.97 0.99 0.96 0.99 1.01 0.98 0.98 1.05 1.11 1.08 1.08 1.08 1.09 1.08 1.07 1.05 1.02 0.98 0.95 0.95 0.96 0.96 0.96 0.91 0.87 0.86 0.88 0.89 0.89 0.89 0.86 0.83 0.78 0.74 0.73 0.71 0.69 0.67 0.67 0.68 0.70 0.72 0.77 0.81 0.84 0.86 0.89 0.95 0.98 1.01 1.03 1.02 1.03 1.05 1.14 1.15 1.15 1.20 1.19 1.15 1.16
1.09 1.14 1.09 1.04 0.97 0.93 0.92 0.93 0.96 0.95 0.94 0.92 0.90 0.86 0.84 0.85 0.87 0.89 0.90 0.91 0.92 0.93 0.92 0.92 0.93 0.96 0.96 0.94 0.99 1.03 1.05 1.07 1.07 1.06 1.06 1.07 1.07 1.06 1.05 1.02 0.99 0.97 0.97 0.97 0.96 0.94 0.92 0.89 0.87 0.87 0.90 0.92 0.90 0.86 0.82 0.77 0.74 0.72 0.71 0.70 0.66 0.65 0.64 0.65 0.67 0.70 0.72 0.75 0.79 0.82 0.85 0.89 0.94 0.99 1.00 1.01 1.02 1.03 1.05 1.14 1.16 1.15 1.15 1.15 1.12
0.96 0.92 0.88 0.87 0.88 0.89 0.92 0.94 0.94 0.93 0.92 0.91 0.90 0.86 0.80 0.76 0.80 0.88 0.91 0.91 0.90 0.90 0.90 0.91 0.92 0.94 0.94 0.95 0.94 0.95 0.99 1.00 1.00 1.00 1.02 1.02 1.03 1.03 1.02 1.01 1.00 1.00 1.00 1.01 0.97 0.90 0.90 0.89 0.86 0.87 0.90 0.90 0.88 0.83 0.79 0.75 0.73 0.71 0.70 0.67 0.63 0.63 0.62 0.62 0.65 0.66 0.66 0.68 0.70 0.74 0.76 0.82 0.89 0.95 0.97 0.99 1.03 1.02 1.01 1.04 1.11 1.12 1.11 1.14 1.15
0.87 0.84 0.85 0.87 0.89 0.93 0.93 0.92 0.91 0.91 0.89 0.87 0.86 0.83 0.79 0.77 0.77 0.80 0.87 0.89 0.88 0.87 0.88 0.90 0.90 0.91 0.92 0.93 0.94 0.94 0.94 0.96 0.97 0.97 0.97 0.98 1.00 1.01 1.00 1.00 1.01 1.02 1.02 0.99 0.93 0.90 0.89 0.89 0.87 0.88 0.88 0.87 0.84 0.80 0.76 0.73 0.70 0.69 0.68 0.64 0.59 0.58 0.59 0.61 0.62 0.61 0.60 0.61 0.64 0.68 0.72 0.76 0.84 0.90 0.95 0.97 0.99 1.00 1.00 1.00 1.07 1.11 1.10 1.09 1.12
0.90 0.88 0.87 0.88 0.89 0.89 0.90 0.91 0.90 0.90 0.91 0.90 0.88 0.85 0.83 0.84 0.83 0.82 0.80 0.81 0.84 0.87 0.90 0.92 0.92 0.93 0.94 0.95 0.95 0.96 0.97 0.97 0.97 0.97 0.98 0.98 0.98 0.98 0.98 0.99 1.02 1.03 1.01 0.96 0.93 0.90 0.89 0.89 0.88 0.86 0.85 0.85 0.83 0.79 0.73 0.70 0.68 0.66 0.64 0.62 0.57 0.55 0.57 0.58 0.56 0.54 0.54 0.55 0.57 0.62 0.68 0.72 0.77 0.82 0.88 0.94 0.98 1.00 0.99 0.99 1.03 1.05 1.08 1.08 1.09
0.92 0.93 0.93 0.91 0.89 0.90 0.92 0.92 0.91 0.91 0.92 0.92 0.92 0.90 0.88 0.89 0.87 0.84 0.82 0.80 0.80 0.81 0.84 0.88 0.93 0.94 0.93 0.94 0.95 0.96 0.96 0.96 0.96 0.95 0.95 0.95 0.95 0.96 0.97 0.96 0.94 0.95 0.95 0.95 0.93 0.93 0.92 0.90 0.87 0.84 0.82 0.80 0.79 0.77 0.71 0.67 0.64 0.62 0.60 0.57 0.54 0.52 0.52 0.52 0.51 0.51 0.50 0.49 0.50 0.55 0.61 0.66 0.71 0.76 0.81 0.86 0.91 0.93 0.94 0.96 1.01 1.04 1.06 1.08 1.10
0.95 0.94 0.95 0.96 0.96 0.97 0.97 0.96 0.95 0.94 0.93 0.93 0.94 0.93 0.93 0.91 0.88 0.87 0.87 0.87 0.86 0.85 0.85 0.87 0.90 0.93 0.95 0.95 0.94 0.94 0.94 0.93 0.93 0.93 0.93 0.93 0.94 0.95 0.88 0.87 0.88 0.89 0.90 0.93 0.93 0.92 0.90 0.87 0.84 0.80 0.77 0.73 0.71 0.70 0.68 0.65 0.62 0.58 0.55 0.53 0.52 0.49 0.47 0.47 0.47 0.47 0.47 0.47 0.47 0.49 0.52 0.58 0.65 0.70 0.77 0.82 0.87 0.91 0.93 0.96 0.98 1.04 1.08 1.08 1.11
0.99 0.97 0.97 0.98 0.99 0.98 0.98 0.98 0.98 0.98 0.98 0.97 0.96 0.95 0.94 0.93 0.93 0.92 0.90 0.89 0.88 0.88 0.87 0.88 0.90 0.91 0.94 0.94 0.95 0.94 0.94 0.93 0.94 0.94 0.94 0.93 0.94 0.93 0.90 0.88 0.87 0.89 0.89 0.90 0.89 0.87 0.82 0.78 0.75 0.72 0.71 0.68 0.65 0.64 0.62 0.61 0.59 0.56 0.53 0.51 0.50 0.48 0.45 0.45 0.44 0.45 0.45 0.45 0.45 0.46 0.47 0.49 0.55 0.62 0.68 0.73 0.79 0.86 0.91 0.95 0.97 1.01 1.07 1.10 1.09
1.02 1.01 1.00 1.02 1.02 1.02 1.01 1.00 1.00 1.01 0.99 0.97 0.95 0.93 0.91 0.91 0.92 0.92 0.91 0.90 0.90 0.89 0.87 0.88 0.89 0.88 0.87 0.90 0.97 0.94 0.93 0.94 0.95 0.95 0.94 0.91 0.89 0.88 0.88 0.88 0.87 0.86 0.84 0.83 0.79 0.73 0.69 0.68 0.67 0.65 0.64 0.64 0.62 0.60 0.59 0.58 0.57 0.54 0.51 0.48 0.47 0.45 0.43 0.42 0.41 0.41 0.42 0.43 0.43 0.44 0.46 0.47 0.49 0.53 0.59 0.64 0.70 0.76 0.83 0.90 0.94 0.96 1.01 1.07 1.07
1.06 1.06 1.05 1.04 1.04 1.04 1.03 1.01 1.00 0.96 0.94 0.93 0.92 0.90 0.89 0.91 0.93 0.93 0.93 0.93 0.92 0.91 0.91 0.91 0.90 0.90 0.92 0.94 0.92 0.93 0.91 0.89 0.88 0.88 0.87 0.86 0.86 0.86 0.85 0.83 0.80 0.78 0.75 0.73 0.71 0.67 0.64 0.63 0.63 0.61 0.60 0.60 0.60 0.58 0.56 0.54 0.53 0.52 0.48 0.43 0.39 0.38 0.37 0.36 0.36 0.37 0.37 0.38 0.40 0.42 0.43 0.44 0.47 0.49 0.52 0.55 0.62 0.69 0.75 0.82 0.89 0.93 0.94 0.99 1.02
1.03 1.03 1.05 1.05 1.03 1.03 1.02 0.99 0.97 0.94 0.93 0.91 0.90 0.92 0.93 0.93 0.93 0.93 0.94 0.93 0.92 0.92 0.92 0.91 0.91 0.93 0.97 0.96 0.92 0.91 0.86 0.85 0.85 0.86 0.85 0.85 0.85 0.84 0.82 0.80 0.78 0.75 0.72 0.70 0.68 0.65 0.62 0.59 0.58 0.56 0.55 0.55 0.56 0.55 0.53 0.51 0.49 0.47 0.41 0.35 0.34 0.32 0.31 0.32 0.33 0.35 0.35 0.37 0.37 0.38 0.39 0.41 0.43 0.45 0.47 0.48 0.52 0.60 0.68 0.74 0.81 0.88 0.93 0.96 1.00
1.06 1.03 1.01 1.01 1.02 1.02 1.01 0.99 0.97 0.94 0.93 0.93 0.93 0.94 0.94 0.95 0.95 0.94 0.93 0.92 0.93 0.93 0.94 0.93 0.94 0.97 0.98 0.94 0.90 0.87 0.83 0.80 0.82 0.84 0.85 0.85 0.85 0.84 0.84 0.83 0.81 0.79 0.77 0.73 0.69 0.65 0.61 0.58 0.57 0.56 0.54 0.53 0.53 0.52 0.49 0.45 0.41 0.37 0.33 0.30 0.28 0.28 0.29 0.31 0.32 0.33 0.34 0.34 0.34 0.34 0.35 0.37 0.38 0.39 0.41 0.45 0.47 0.50 0.58 0.68 0.75 0.80 0.88 0.93 0.97
1.01 1.00 0.98 0.99 1.00 0.99 0.96 0.94 0.95 0.97 0.97 0.95 0.94 0.94 0.95 0.95 0.95 0.94 0.93 0.93 0.93 0.91 0.90 0.91 0.93 0.94 0.90 0.86 0.83 0.83 0.83 0.83 0.84 0.83 0.83 0.84 0.83 0.82 0.81 0.79 0.77 0.74 0.73 0.72 0.69 0.63 0.60 0.59 0.57 0.56 0.54 0.53 0.51 0.47 0.42 0.35 0.31 0.29 0.26 0.24 0.24 0.26 0.27 0.28 0.30 0.31 0.31 0.31 0.30 0.30 0.31 0.32 0.34 0.35 0.38 0.42 0.43 0.45 0.48 0.56 0.66 0.72 0.79 0.86 0.92
0.96 0.95 0.95 0.96 0.97 0.97 0.96 0.97 0.98 0.96 0.94 0.93 0.94 0.96 0.96 0.94 0.94 0.94 0.94 0.93 0.91 0.87 0.85 0.85 0.85 0.84 0.82 0.83 0.81 0.81 0.80 0.79 0.79 0.79 0.80 0.80 0.80 0.79 0.76 0.73 0.71 0.70 0.68 0.66 0.63 0.60 0.57 0.54 0.52 0.50 0.49 0.47 0.45 0.40 0.34 0.29 0.26 0.22 0.21 0.21 0.23 0.24 0.24 0.26 0.27 0.27 0.28 0.28 0.27 0.26 0.27 0.29 0.31 0.32 0.33 0.36 0.39 0.42 0.45 0.48 0.54 0.63 0.71 0.77 0.83
0.97 0.98 0.99 0.99 1.00 1.00 0.99 0.97 0.95 0.94 0.93 0.94 0.93 0.93 0.93 0.92 0.91 0.91 0.90 0.89 0.88 0.86 0.85 0.85 0.83 0.81 0.78 0.78 0.79 0.78 0.75 0.75 0.75 0.76 0.76 0.77 0.75 0.73 0.70 0.68 0.65 0.61 0.58 0.56 0.55 0.53 0.50 0.48 0.47 0.46 0.45 0.43 0.41 0.37 0.29 0.22 0.19 0.17 0.17 0.18 0.21 0.22 0.23 0.24 0.25 0.26 0.27 0.27 0.26 0.24 0.24 0.25 0.27 0.29 0.29 0.30 0.32 0.34 0.38 0.43 0.48 0.53 0.59 0.68 0.75
0.97 0.96 0.96 0.95 0.95 0.94 0.94 0.94 0.94 0.92 0.91 0.91 0.90 0.90 0.90 0.88 0.87 0.86 0.84 0.83 0.84 0.84 0.84 0.82 0.80 0.78 0.75 0.75 0.74 0.73 0.73 0.73 0.73 0.72 0.71 0.69 0.68 0.66 0.63 0.60 0.56 0.52 0.50 0.50 0.49 0.47 0.46 0.45 0.43 0.40 0.38 0.37 0.35 0.31 0.23 0.17 0.17 0.16 0.17 0.19 0.20 0.22 0.24 0.26 0.27 0.29 0.29 0.27 0.26 0.25 0.23 0.24 0.25 0.26 0.26 0.26 0.26 0.27 0.30 0.36 0.42 0.47 0.51 0.56 0.62
0.95 0.95 0.93 0.91 0.91 0.90 0.88 0.89 0.89 0.88 0.88 0.87 0.85 0.83 0.82 0.81 0.79 0.77 0.76 0.76 0.76 0.75 0.74 0.73 0.71 0.69 0.69 0.69 0.71 0.71 0.72 0.71 0.70 0.68 0.66 0.64 0.62 0.59 0.55 0.51 0.49 0.49 0.48 0.47 0.47 0.46 0.45 0.42 0.39 0.36 0.34 0.31 0.28 0.22 0.17 0.16 0.17 0.18 0.18 0.20 0.23 0.25 0.27 0.29 0.31 0.31 0.31 0.30 0.28 0.26 0.24 0.24 0.25 0.25 0.26 0.25 0.24 0.24 0.25 0.28 0.33 0.38 0.44 0.49 0.53
0.94 0.94 0.93 0.91 0.89 0.87 0.86 0.87 0.86 0.83 0.82 0.79 0.77 0.74 0.72 0.69 0.66 0.65 0.64 0.63 0.64 0.64 0.64 0.65 0.65 0.64 0.64 0.63 0.63 0.62 0.62 0.63 0.63 0.62 0.60 0.58 0.54 0.51 0.49 0.48 0.47 0.46 0.45 0.44 0.42 0.40 0.38 0.35 0.33 0.31 0.28 0.26 0.23 0.20 0.17 0.17 0.17 0.18 0.19 0.20 0.23 0.26 0.29 0.31 0.32 0.32 0.33 0.32 0.31 0.29 0.27 0.25 0.24 0.24 0.24 0.24 0.23 0.23 0.24 0.24 0.25 0.26 0.31 0.37 0.43
0.92 0.91 0.89 0.88 0.87 0.85 0.84 0.83 0.80 0.78 0.74 0.71 0.68 0.66 0.65 0.64 0.63 0.62 0.62 0.63 0.64 0.64 0.64 0.62 0.60 0.58 0.56 0.56 0.57 0.56 0.55 0.56 0.58 0.58 0.54 0.49 0.46 0.47 0.47 0.46 0.43 0.42 0.40 0.39 0.38 0.36 0.34 0.31 0.29 0.27 0.26 0.24 0.24 0.23 0.22 0.21 0.19 0.18 0.19 0.19 0.21 0.25 0.28 0.30 0.31 0.33 0.33 0.32 0.32 0.30 0.29 0.27 0.26 0.25 0.25 0.24 0.23 0.24 0.23 0.23 0.24 0.24 0.25 0.27 0.31
0.88 0.88 0.86 0.86 0.86 0.86 0.83 0.80 0.78 0.75 0.72 0.70 0.69 0.67 0.65 0.65 0.64 0.63 0.62 0.62 0.62 0.63 0.62 0.61 0.60 0.58 0.56 0.56 0.56 0.54 0.53 0.54 0.55 0.55 0.51 0.45 0.43 0.43 0.43 0.41 0.40 0.39 0.38 0.37 0.36 0.34 0.31 0.29 0.27 0.27 0.26 0.27 0.27 0.26 0.25 0.23 0.21 0.19 0.18 0.18 0.19 0.22 0.26 0.29 0.31 0.32 0.32 0.31 0.31 0.30 0.29 0.28 0.26 0.25 0.26 0.25 0.24 0.24 0.25 0.25 0.24 0.24 0.24 0.25 0.25
0.80 0.81 0.83 0.85 0.84 0.83 0.81 0.79 0.76 0.75 0.74 0.72 0.70 0.69 0.69 0.67 0.65 0.64 0.63 0.63 0.64 0.64 0.65 0.62 0.59 0.58 0.57 0.56 0.55 0.54 0.53 0.52 0.53 0.55 0.52 0.46 0.44 0.44 0.43 0.41 0.39 0.37 0.36 0.35 0.34 0.33 0.31 0.28 0.26 0.26 0.26 0.27 0.28 0.27 0.26 0.26 0.24 0.22 0.19 0.18 0.18 0.20 0.24 0.27 0.30 0.31 0.31 0.30 0.29 0.28 0.28 0.28 0.27 0.26 0.25 0.25 0.25 0.25 0.25 0.25 0.25 0.24 0.24 0.25 0.25
0.79 0.76 0.73 0.71 0.70 0.70 0.70 0.70 0.71 0.73 0.73 0.72 0.70 0.68 0.66 0.65 0.65 0.65 0.65 0.64 0.62 0.63 0.63 0.60 0.58 0.58 0.57 0.57 0.56 0.55 0.55 0.54 0.54 0.55 0.51 0.46 0.43 0.42 0.41 0.39 0.38 0.36 0.33 0.31 0.30 0.29 0.28 0.27 0.27 0.27 0.27 0.28 0.28 0.28 0.28 0.27 0.26 0.24 0.22 0.19 0.17 0.17 0.21 0.26 0.29 0.30 0.30 0.29 0.28 0.27 0.26 0.27 0.26 0.24 0.24 0.24 0.24 0.25 0.26 0.26 0.25 0.24 0.24 0.25 0.26
Wind_Speed
19 19 18 18 18 17 16 16 16 16 16 16 17 18 18 18 19 19 19 18 18 19 19 19 19 19 19 20 20 21 21 21 21 22 22 22 22 22 22 22 23 23 23 23 23 23 24 24 24 24 23 24 24 24 24 23 23 23 23 23 24 24 24 25 26 26 27 27 28 29 30 31 31 31 32 32 33 34 36 37 38 38 39 39 40
20 20 19 19 19 18 17 17 17 17 17 17 18 18 19 18 19 19 19 19 19 19 20 20 20 20 20 20 21 21 21 22 22 22 22 22 22 22 22 23 23 23 23 23 23 24 24 24 24 24 24 24 24 24 24 24 24 24 24 24 24 24 25 25 26 27 27 28 28 29 30 31 31 31 32 32 33 34 35 36 38 38 39 39 40
21 20 20 20 20 19 18 18 18 18 18 18 19 19 19 19 19 20 19 19 19 20 20 20 20 20 20 20 21 21 22 22 22 22 22 22 23 23 23 23 23 23 23 23 24 24 24 24 24 24 24 24 25 24 24 24 24 24 24 24 24 25 25 25 26 27 28 28 29 30 30 31 31 32 32 32 33 34 35 35 37 38 38 39 40
22 21 21 21 20 20 19 19 19 19 19 19 19 19 19 19 20 20 20 20 21 21 21 20 20 20 20 21 21 22 22 22 22 22 22 23 23 23 23 23 23 23 23 23 24 24 24 24 24 24 24 24 24 24 23 23 24 24 24 24 24 25 25 25 26 26 28 29 29 30 31 31 31 31 32 32 32 33 34 35 36 38 38 39 39
22 22 21 21 21 20 20 20 20 20 20 20 19 19 19 20 20 20 21 21 21 20 20 20 20 21 21 21 22 22 22 22 22 22 23 23 23 23 22 23 23 23 23 23 23 24 24 24 24 24 24 24 24 23 23 24 24 24 25 25 25 25 25 26 26 26 27 29 29 30 30 30 30 30 31 31 31 31 33 34 36 37 38 38 39
22 22 22 21 21 21 21 21 21 21 21 20 19 19 19 20 21 21 21 21 20 20 20 20 21 21 22 22 22 22 22 22 23 23 23 23 23 23 22 23 23 23 23 23 23 23 24 24 24 24 24 24 23 23 23 24 24 24 24 24 25 25 25 25 26 26 27 28 29 30 29 30 30 30 29 30 31 31 32 33 35 36 37 38 39
22 22 22 21 21 21 21 22 22 21 21 20 20 19 20 21 21 21 21 20 20 20 21 21 22 22 22 23 23 24 24 24 24 24 23 23 23 23 23 23 23 23 22 22 23 23 24 24 24 24 23 23 23 23 23 24 24 23 23 24 25 24 25 25 26 27 27 28 29 29 29 29 29 29 28 28 30 30 31 32 33 35 36 37 38
22 22 22 22 22 22 22 22 22 21 21 20 20 20 20 21 21 21 20 20 20 21 22 22 22 23 23 23 24 24 24 24 23 23 23 22 22 23 23 22 22 22 22 22 23 24 24 24 24 24 23 23 24 24 24 24 24 23 23 24 24 25 25 26 26 27 27 28 29 29 28 29 29 28 27 27 28 29 29 30 32 34 36 37 38
22 22 23 22 22 23 23 22 22 21 20 20 20 20 20 20 21 21 20 21 21 22 22 22 22 23 24 24 24 24 24 24 23 22 22 22 22 22 22 22 22 22 22 22 23 24 24 24 24 24 24 24 24 25 25 24 24 24 24 24 25 25 25 26 26 27 27 28 28 28 28 28 28 27 26 26 27 29 30 30 32 34 35 37 38
22 23 23 23 23 23 23 23 22 21 20 20 20 20 20 21 21 21 21 21 22 22 23 23 23 24 24 25 25 24 24 24 23 22 22 22 22 22 22 22 22 22 22 23 24 24 24 24 24 24 24 25 25 25 25 24 24 24 24 24 25 25 26 26 26 27 27 27 27 27 28 28 28 27 26 26 26 28 29 30 31 32 34 36 37
22 23 23 23 23 23 23 23 22 21 20 20 20 21 21 21 21 21 21 22 22 22 23 23 24 24 25 25 25 25 25 25 24 23 23 23 23 23 23 23 23 23 23 23 24 25 24 24 24 24 25 25 25 25 24 24 24 24 24 25 25 25 26 26 27 27 27 27 27 27 27 28 28 28 27 27 27 27 29 30 31 32 33 35 36
23 22 23 23 23 23 22 21 21 21 21 21 21 21 21 21 21 22 22 22 23 22 23 24 25 25 25 26 26 25 25 25 24 24 23 24 24 23 23 23 23 23 24 24 25 25 24 24 24 24 25 25 24 24 24 24 24 24 24 25 25 26 26 27 27 27 27 27 27 27 27 28 29 28 28 28 28 28 29 30 31 32 34 35 36
23 23 22 22 22 21 21 21 21 21 21 22 22 21 21 22 22 23 23 23 23 24 24 25 26 26 26 26 25 25 26 26 25 24 24 24 24 23 23 23 24 24 24 25 25 25 25 25 25 25 24 24 24 24 24 24 24 24 24 25 25 25 26 27 27 27 27 26 26 27 27 28 28 28 29 29 29 29 29 30 32 33 34 35 37
24 23 22 22 21 21 20 20 21 21 22 22 22 22 22 23 23 24 24 24 24 25 26 26 26 26 26 26 26 26 27 27 26 25 24 23 23 23 23 24 24 25 25 25 25 25 25 25 25 25 24 24 24 24 24 24 24 24 24 25 25 25 26 26 26 26 26 26 26 27 28 28 29 29 29 29 29 29 30 31 32 34 35 36 37
24 24 22 22 22 21 20 20 21 22 22 22 22 23 23 23 24 24 25 25 26 26 27 27 27 27 27 26 27 27 27 26 25 24 23 23 23 23 24 25 25 25 25 25 25 25 26 26 25 25 24 24 24 25 25 24 24 24 24 25 25 25 25 26 26 26 25 25 26 27 28 29 29 30 30 30 30 29 30 31 32 33 35 36 37
24 23 22 21 21 21 21 21 22 22 22 22 23 23 24 24 25 25 26 26 27 27 28 29 29 29 28 27 27 27 27 25 24 23 23 23 23 23 24 26 26 26 25 25 24 25 26 26 26 25 24 24 24 25 25 24 24 24 25 25 25 25 25 25 26 26 26 26 27 28 28 29 30 31 31 31 31 30 30 31 32 32 34 35 36
23 23 22 22 22 21 22 22 22 22 22 23 23 24 25 25 25 25 26 27 28 29 30 30 31 30 29 27 27 27 27 26 24 23 23 23 23 24 25 26 26 26 25 24 24 25 25 25 25 24 24 24 24 24 24 24 24 24 25 25 25 25 25 26 26 27 27 27 27 28 29 29 31 32 32 32 31 29 29 31 31 32 33 33 34
23 23 22 23 23 22 22 23 23 22 23 23 24 25 25 24 25 25 26 28 29 30 30 31 32 32 30 28 28 28 28 26 25 24 24 24 24 25 26 26 26 26 25 24 24 24 25 25 25 25 25 24 24 24 24 24 24 25 25 25 24 25 25 26 27 27 27 27 28 28 29 30 31 33 33 32 30 29 28 29 31 31 32 33 33
23 22 22 23 23 23 23 23 22 22 23 24 24 25 25 25 26 26 27 28 29 29 30 30 31 31 30 30 30 30 29 27 25 24 24 24 24 25 25 26 26 26 25 25 25 24 24 25 25 25 25 24 24 24 24 24 25 25 24 24 24 24 25 26 27 27 27 27 28 28 29 30 31 32 32 31 29 27 27 28 29 31 32 32 33
23 23 23 23 23 23 22 22 22 23 23 24 25 25 26 26 27 27 28 29 29 29 29 30 30 30 30 31 32 32 30 27 26 25 25 24 25 25 26 27 27 26 26 26 25 25 25 26 25 25 25 25 24 24 24 25 25 24 24 23 23 24 25 26 26 26 26 27 27 29 29 30 31 32 31 30 28 26 26 26 28 30 32 32 33
23 23 22 22 22 21 21 21 22 23 24 24 25 26 26 27 27 28 28 29 30 31 31 31 31 31 31 32 32 30 28 27 26 26 25 25 26 27 28 28 27 27 27 26 26 26 26 26 25 25 25 24 24 24 25 25 24 23 23 23 23 24 24 25 25 25 25 26 27 28 29 29 30 31 31 29 27 25 25 25 26 29 31 32 33
20 19 19 19 19 19 20 21 22 23 24 25 25 26 27 27 27 28 29 30 31 33 33 32 31 31 31 31 30 29 28 28 28 27 28 29 30 30 29 28 28 28 27 26 26 26 26 25 25 25 24 24 24 25 25 24 23 22 22 22 23 24 24 24 24 24 24 25 26 27 28 28 29 31 31 29 27 25 24 23 25 27 29 31 33
17 17 16 16 18 19 20 22 23 23 24 25 25 26 26 27 27 29 31 32 33 33 33 32 31 31 31 30 30 30 30 30 30 30 31 31 31 31 30 29 28 28 27 27 26 26 25 25 25 25 24 24 25 25 24 22 21 21 21 22 22 23 23 23 23 23 23 24 25 26 27 28 29 30 30 29 27 25 23 23 24 25 27 30 33
17 16 15 17 19 21 22 22 23 23 24 24 25 25 26 27 28 30 31 32 33 33 32 31 32 32 31 30 30 30 30 30 31 31 32 31 31 31 30 29 29 28 27 27 26 26 26 26 25 25 24 25 25 23 22 20 20 21 21 21 22 22 22 22 22 22 23 24 25 26 27 27 28 29 30 29 26 24 22 22 22 22 24 27 31
18 15 16 18 19 21 22 22 22 23 23 23 24 25 27 28 29 30 31 32 32 32 32 32 32 32 31 31 30 30 31 31 31 31 31 31 31 31 30 29 28 28 27 27 27 27 27 27 26 25 24 24 23 21 20 20 20 20 20 20 21 21 21 21 21 21 22 23 24 25 26 27 27 28 28 28 26 24 22 20 19 18 19 23 28
16 15 17 18 19 19 20 21 21 21 22 23 25 26 28 29 30 30 31 31 32 31 31 32 32 32 31 31 30 30 31 31 31 31 30 30 30 30 29 29 28 27 27 27 27 27 27 26 25 24 23 22 21 19 19 19 19 19 19 19 20 20 20 20 20 21 21 22 24 25 26 26 26 26 27 26 25 23 21 19 17 15 14 18 24
17 18 19 19 19 19 20 21 22 22 23 24 26 28 29 30 30 30 30 31 31 31 31 30 30 30 31 31 31 31 31 30 30 30 30 29 29 29 29 28 27 27 27 27 27 26 26 25 23 22 21 20 19 18 18 18 18 18 18 18 19 20 19 19 19 20 20 22 23 24 24 25 25 25 25 25 23 21 20 18 15 12 10 12 20
22 23 22 21 21 20 21 22 23 23 24 26 27 29 30 30 30 30 30 30 30 30 30 30 30 30 30 31 31 31 30 30 29 29 29 29 29 28 28 27 27 27 27 27 26 26 25 23 21 20 19 18 18 17 17 18 18 18 17 18 18 19 19 19 19 19 20 21 22 22 23 24 24 24 23 23 22 20 19 17 13 10 7 7 13
24 24 24 23 22 22 22 23 23 24 26 27 28 30 30 30 30 30 30 30 30 30 29 29 29 30 30 30 30 29 29 29 28 28 28 28 28 28 27 27 27 27 26 26 25 24 23 21 19 19 18 18 17 17 17 18 17 17 17 17 18 18 18 18 19 19 19 20 21 21 22 23 23 23 22 21 21 20 18 16 13 8 6 5 9
26 25 24 23 23 23 23 24 25 26 27 28 29 30 30 30 30 30 30 30 29 29 29 29 29 29 29 29 28 28 28 27 27 27 27 27 27 26 26 26 26 26 25 24 23 22 21 19 18 18 18 17 17 17 17 17 17 17 17 17 18 18 18 18 18 18 19 19 20 20 20 21 22 22 21 20 20 19 17 15 13 8 3 6 8
25 24 24 23 24 24 25 26 27 28 28 29 30 30 30 30 30 29 29 29 29 29 29 29 29 29 28 27 27 27 26 26 25 25 26 26 25 25 25 25 24 24 23 22 21 20 19 19 18 18 17 17 17 17 16 16 16 17 18 18 18 18 18 18 18 18 18 19 19 19 19 20 20 21 20 19 18 18 17 15 12 8 3 5 8
24 24 25 25 25 25 26 27 28 29 29 30 30 30 30 29 29 29 28 28 29 29 29 29 28 27 27 26 25 25 25 24 23 23 23 24 24 23 23 23 22 22 21 20 19 18 19 18 17 17 17 16 16 16 16 16 16 17 17 18 17 17 17 17 17 17 17 18 18 18 18 18 19 19 19 19 18 17 16 15 12 9 4 1 6
25 26 26 26 26 26 27 29 29 30 30 30 30 30 30 29 28 28 28 28 28 28 28 27 27 26 25 25 24 24 23 23 22 22 22 22 22 22 22 21 21 20 19 18 18 17 17 17 16 16 16 15 15 16 16 16 16 16 17 17 17 16 16 16 16 16 16 17 17 17 17 17 18 18 17 18 17 16 15 14 12 9 5 2 2
26 26 27 27 27 28 29 30 30 30 30 30 30 30 29 29 28 28 28 28 28 27 27 26 26 25 24 23 23 23 22 22 21 21 21 21 21 21 20 19 19 18 17 16 16 16 16 15 16 16 15 15 15 15 16 16 16 16 16 16 16 16 15 15 15 15 16 16 16 17 17 17 16 16 16 16 16 16 14 13 12 10 7 4 2
26 27 27 27 28 28 29 29 29 29 29 29 29 29 29 29 29 29 29 28 27 26 26 25 24 23 23 22 22 22 21 20 20 20 20 20 19 19 18 17 16 15 15 14 14 15 15 15 15 15 15 15 15 15 15 15 15 15 15 15 15 15 15 15 15 15 15 15 15 16 16 16 16 16 15 15 15 15 14 13 11 10 8 5 3
26 26 27 27 27 28 28 28 28 28 29 29 30 30 30 30 30 29 29 27 26 26 25 24 23 22 22 22 21 20 20 19 18 18 18 18 17 17 16 15 14 14 14 14 14 14 14 15 15 15 15 15 15 15 15 15 15 15 15 14 14 14 14 14 14 14 14 14 15 15 15 16 15 15 15 14 14 13 13 13 11 9 8 7 5
26 26 26 27 27 28 28 28 29 29 29 30 30 30 30 30 29 29 28 26 25 24 23 22 21 21 21 21 20 19 18 18 17 17 17 17 16 15 14 14 14 14 14 14 14 14 14 14 14 14 14 14 14 14 15 15 15 15 14 14 14 14 14 14 14 14 14 14 14 14 14 15 15 15 14 13 13 12 12 12 11 10 8 7 6
26 26 26 27 27 28 28 29 29 30 30 30 30 30 30 29 29 27 26 24 23 23 22 21 20 20 20 19 18 18 18 17 17 16 16 15 15 15 14 14 14 14 14 14 14 14 14 14 13 14 14 14 13 14 14 14 14 14 14 14 14 14 14 14 13 13 13 13 13 13 14 14 14 14 14 13 12 12 11 11 11 10 9 8 6
25 25 26 26 27 28 29 29 30 30 30 30 30 29 29 28 27 25 24 23 22 21 21 20 20 20 19 18 18 18 18 17 17 16 16 15 15 15 15 15 15 15 14 14 14 14 14 14 13 13 13 13 13 13 13 13 14 14 14 14 14 14 14 13 13 12 12 12 12 13 13 13 13 13 13 12 12 11 10 10 9 9 8 8 6
26 26 26 27 28 29 30 30 30 30 30 30 29 28 27 26 25 23 22 21 21 20 20 20 20 19 19 18 18 18 18 18 17 16 16 16 16 16 15 15 15 14 14 14 14 14 14 14 13 13 13 13 13 12 12 13 13 13 13 13 13 13 13 12 12 12 12 12 12 12 12 13 13 13 13 12 12 11 10 9 8 8 7 7 7
28 28 29 29 29 29 29 30 30 30 30 29 27 26 25 24 23 22 21 20 19 19 19 19 19 19 18 18 18 18 18 18 17 16 16 16 15 15 14 14 14 13 13 13 13 13 13 13 13 13 13 13 13 12 12 13 12 12 12 12 11 11 11 11 11 11 11 11 11 11 11 12 12 12 12 12 12 11 10 9 8 7 7 6 6
29 29 29 29 28 28 29 29 29 28 27 26 25 24 23 22 21 20 19 19 19 18 18 18 18 18 18 18 18 18 17 16 16 15 15 15 14 14 14 14 14 14 14 14 14 13 13 13 13 13 13 13 12 12 12 12 12 11 11 10 10 10 10 10 10 10 10 10 11 11 11 11 11 11 11 11 11 11 10 9 8 7 6 6 5
28 29 29 29 28 28 27 27 26 25 24 23 23 22 21 20 19 19 19 19 19 18 18 17 18 18 18 17 17 17 16 16 15 15 15 15 15 14 14 14 14 14 14 14 13 13 13 13 12 12 12 12 12 11 11 11 10 10 10 9 9 9 9 9 9 9 10 10 10 10 10 10 10 10 11 11 11 10 10 9 8 7 6 5 5
27 28 27 27 27 26 26 25 24 23 22 21 21 20 19 18 18 18 19 19 19 18 18 18 18 17 17 17 17 16 15 15 15 15 15 15 15 15 15 15 15 14 14 13 13 13 12 12 11 11 11 11 10 10 10 9 9 9 9 9 9 8 9 9 9 9 9 10 10 10 10 10 10 10 10 10 10 10 10 9 8 8 7 6 5
26 26 25 25 24 24 23 22 21 20 20 19 19 18 18 18 18 19 18 18 19 19 18 18 18 17 17 17 17 16 15 15 15 16 16 15 15 15 15 15 14 13 13 12 12 12 12 12 11 11 10 10 9 9 9 9 9 9 9 9 9 9 9 9 10 10 10 10 10 10 10 10 10 10 10 10 10 10 10 9 9 8 7 6 5
24 23 23 23 22 21 21 20 19 19 18 18 18 18 18 19 19 19 19 19 19 19 19 19 18 17 17 17 17 17 16 15 15 15 15 15 15 14 14 13 13 13 12 12 12 12 11 11 11 11 10 10 9 9 9 9 9 9 9 9 9 10 10 10 11 11 11 11 10 10 10 10 10 9 10 10 10 9 9 9 9 8 8 7 7
22 22 21 21 20 20 19 18 18 18 18 18 18 19 19 19 19 19 19 19 19 19 19 19 18 17 17 17 17 17 16 16 15 15 15 14 14 13 13 13 12 12 12 11 11 11 11 11 11 10 10 10 10 9 9 9 9 9 10 10 10 10 11 11 11 12 12 12 11 11 11 11 11 10 9 9 9 9 9 9 8 8 8 7 7
20 20 20 19 19 18 18 17 18 18 19 19 19 19 19 19 19 20 19 19 19 19 19 18 18 17 17 16 16 16 16 15 15 15 14 14 14 14 13 13 12 12 12 12 12 12 12 11 11 10 10 10 10 10 9 9 10 10 10 11 11 11 12 12 12 12 12 12 12 12 12 12 11 11 10 10 9 9 9 8 8 8 8 7 7
18 18 18 18 18 18 18 18 18 19 19 20 20 20 20 20 20 20 20 20 20 20 19 18 18 17 16 16 16 15 15 15 15 15 14 14 14 14 14 13 13 12 13 13 13 12 12 12 11 10 10 10 10 10 10 10 11 11 11 12 12 12 12 12 12 12 13 13 12 12 12 12 11 11 11 10 10 9 9 8 8 7 7 7 7
15 15 16 16 17 18 19 19 20 20 20 20 21 21 21 21 21 21 21 21 20 20 20 19 18 17 16 16 16 15 15 15 15 15 14 14 14 14 14 13 13 13 13 13 13 13 12 12 11 11 11 11 11 11 11 12 12 12 12 13 13 13 13 13 13 13 12 12 12 12 12 12 11 11 11 11 10 10 9 9 8 7 7 7 6
14 14 15 15 16 17 18 19 20 21 21 21 22 22 22 22 23 23 22 22 21 21 20 19 18 17 17 16 16 16 15 15 15 15 15 15 14 14 14 13 13 13 13 13 13 12 12 12 12 12 11 11 11 12 12 12 12 13 13 13 13 13 13 13 13 13 12 12 12 12 12 11 11 11 11 11 10 10 9 9 8 8 7 7 6
Wind_Direction
247 249 252 255 258 262 268 275 280 283 287 290 294 298 300 302 307 310 311 313 314 313 312 311 309 309 310 311 311 312 312 311 311 312 312 311 309 307 307 307 307 308 308 308 308 308 308 308 308 308 306 305 305 303 302 300 300 300 300 299 298 297 294 291 288 286 287 289 290 290 288 285 282 278 272 265 261 259 255 250 246 244 243 242 241
247 249 252 254 257 261 266 273 277 280 285 288 292 297 299 301 306 309 311 312 312 311 310 309 308 307 308 308 309 310 309 309 310 312 312 312 310 308 307 307 307 308 308 308 308 308 308 308 308 308 307 306 305 302 300 299 298 299 299 298 298 299 297 294 291 289 288 289 292 292 290 287 283 279 274 267 262 259 255 251 246 243 242 241 240
247 249 251 253 256 260 264 270 274 278 282 285 291 296 297 300 306 308 310 311 311 310 309 307 307 306 306 306 306 307 308 309 310 311 311 312 311 309 308 307 307 307 307 307 308 309 308 308 308 308 307 306 305 303 300 298 298 297 297 297 298 300 300 297 294 292 291 291 293 294 292 289 285 281 276 268 262 259 255 251 246 243 241 240 239
247 249 250 252 256 258 263 268 272 275 279 284 290 295 295 299 305 308 309 310 309 308 307 306 306 306 306 306 306 307 308 308 309 310 310 311 311 310 308 308 307 307 308 308 308 309 309 309 309 308 308 306 305 303 300 299 298 297 296 296 297 299 301 299 297 295 294 294 295 296 294 291 287 283 277 269 263 259 255 251 246 244 241 240 239
247 248 250 252 255 258 263 267 270 274 277 283 290 293 294 299 304 306 308 308 307 307 307 307 307 307 307 307 308 308 308 308 308 308 309 310 311 310 309 308 307 308 309 308 309 310 310 309 309 308 307 307 305 303 301 299 298 296 295 295 296 298 299 299 298 298 297 297 298 298 297 294 290 286 279 271 264 260 256 252 247 244 242 240 239
247 248 250 252 254 258 262 266 270 273 276 282 288 291 294 299 303 305 306 306 306 307 308 308 308 308 308 308 309 309 309 309 308 308 308 309 309 309 308 307 307 308 309 308 308 310 310 309 308 307 307 306 306 305 302 300 299 297 295 295 296 298 299 299 299 299 298 299 300 300 300 297 294 289 281 272 266 261 257 253 249 245 242 241 239
246 248 251 252 254 258 261 266 271 272 275 281 286 289 294 298 301 303 304 304 305 307 308 308 307 307 308 308 309 310 310 309 308 308 307 307 308 308 307 306 306 307 308 307 307 308 309 309 307 306 306 306 306 306 304 302 300 298 296 296 297 298 299 300 300 300 300 301 302 302 301 300 297 292 284 274 267 263 259 255 250 246 243 241 239
247 248 251 252 254 257 261 266 270 271 275 281 284 288 293 296 299 301 302 302 304 306 307 307 307 307 309 309 310 310 310 309 308 307 306 306 307 306 306 305 304 305 306 306 306 307 309 308 307 306 306 306 306 306 304 303 301 299 297 297 298 298 299 300 300 301 301 302 303 303 303 302 300 295 288 277 268 264 261 256 251 248 245 242 240
247 249 250 252 254 257 261 266 268 270 275 279 282 286 291 294 297 299 300 301 303 305 306 306 306 307 308 309 310 310 309 309 307 306 306 306 306 305 305 304 303 304 304 305 306 307 308 308 307 305 305 305 305 305 303 302 301 299 298 298 298 299 299 300 300 301 302 303 304 304 304 304 303 298 292 282 271 265 263 259 253 249 246 244 241
248 249 250 252 254 256 260 265 267 270 274 278 281 285 289 291 294 297 298 300 302 304 305 306 306 307 308 308 309 309 309 309 307 305 304 305 305 305 305 303 303 303 302 303 305 307 308 307 306 305 304 304 305 304 302 301 300 299 298 299 299 299 300 300 300 301 302 303 304 304 304 304 303 299 293 286 276 267 262 260 255 251 247 244 241
248 249 250 251 253 255 260 265 267 269 272 276 280 284 287 290 292 295 297 299 301 303 305 306 306 307 307 307 308 308 308 307 305 303 302 302 303 304 303 302 302 302 301 302 304 306 307 306 306 305 305 305 305 304 303 301 300 299 299 298 299 299 300 300 301 301 302 303 304 305 304 303 302 298 293 288 281 271 263 259 256 253 248 244 241
247 248 249 250 252 255 260 264 265 267 270 274 279 282 285 288 290 293 295 298 301 302 303 305 306 307 307 307 307 307 308 306 303 301 300 299 300 301 302 302 302 302 301 300 302 304 305 305 305 305 305 305 305 304 303 302 301 300 300 299 299 300 300 300 301 302 303 304 305 305 305 304 302 300 295 289 283 275 266 259 255 253 250 245 241
246 247 249 249 251 254 259 263 264 266 270 274 278 280 284 287 289 291 294 297 299 301 302 303 305 305 306 306 306 307 307 306 302 300 299 297 297 299 300 301 303 302 301 300 301 302 304 304 304 304 304 304 304 304 303 302 301 301 301 301 301 301 301 301 301 301 302 304 304 305 306 305 303 302 299 293 284 276 268 260 255 252 250 247 243
246 247 248 248 250 254 259 263 265 267 271 274 276 279 283 286 289 292 294 296 298 299 301 302 303 304 305 305 305 306 307 304 300 297 296 296 296 298 300 302 303 303 302 300 299 300 302 304 303 303 303 303 304 304 303 302 301 301 301 302 302 302 303 303 303 302 302 304 304 305 306 306 304 303 302 298 288 278 270 263 257 253 250 248 245
245 246 246 247 250 254 259 263 267 269 270 273 276 279 283 286 289 292 294 295 297 299 300 300 301 302 303 303 304 306 306 304 300 296 295 295 295 296 300 303 304 304 303 300 298 298 301 302 303 302 302 302 303 304 303 302 301 301 302 302 303 304 304 305 305 305 304 305 305 306 308 307 306 305 304 300 292 281 271 265 259 255 252 249 245
246 246 246 247 249 254 260 265 269 270 270 273 277 280 284 287 289 291 293 295 297 299 299 300 300 300 300 301 302 304 305 303 300 297 295 295 295 296 299 302 303 303 303 300 298 298 300 302 302 302 301 302 302 302 302 302 301 301 302 303 303 304 304 305 306 305 304 304 306 308 309 308 307 307 306 302 295 284 273 264 260 256 252 248 244
245 245 246 247 249 255 262 266 269 270 270 274 278 281 284 288 290 292 293 295 298 299 299 299 299 299 298 298 301 303 304 301 297 295 295 295 296 297 298 300 301 301 301 300 299 299 300 301 301 301 301 301 301 301 301 302 301 302 303 303 304 303 304 306 307 305 304 304 305 308 309 309 309 310 309 304 296 287 274 264 259 256 251 246 242
242 242 245 249 252 257 262 266 269 270 272 276 279 282 286 289 292 293 294 295 298 299 299 299 298 297 295 296 299 302 302 299 294 293 294 296 297 298 298 298 300 300 300 300 300 300 301 301 301 301 301 300 300 300 301 301 301 302 303 304 304 304 305 308 308 307 306 305 306 308 310 310 311 312 311 306 298 289 276 265 259 256 251 245 241
241 242 248 253 255 259 263 266 268 271 274 278 282 284 288 290 292 294 295 296 297 299 300 300 300 298 294 293 296 299 298 296 293 291 292 295 298 298 297 297 299 299 299 300 300 300 301 302 302 301 300 300 299 300 300 300 301 303 304 304 303 304 306 309 309 309 308 308 308 309 311 312 314 315 313 309 302 292 280 269 261 257 252 246 240
240 246 252 255 257 260 265 268 270 273 277 281 283 286 288 290 292 294 295 296 297 298 299 300 299 298 294 292 294 295 293 292 291 289 290 294 297 298 297 297 297 298 298 299 299 300 301 301 301 300 299 299 299 299 299 300 300 302 303 303 304 305 307 309 310 309 310 310 310 311 312 314 316 317 315 311 304 295 285 274 263 257 253 247 240
243 250 254 256 259 263 268 270 273 276 279 282 285 286 288 290 291 293 295 296 296 297 298 298 297 297 295 293 293 293 292 291 289 287 288 291 295 297 296 295 296 296 297 297 298 300 300 300 300 299 298 298 298 299 300 300 300 301 302 303 304 305 307 309 310 311 312 312 313 313 314 316 318 320 319 314 306 298 288 278 267 260 254 247 240
243 248 252 257 262 267 271 274 276 278 280 283 285 287 288 290 291 293 296 297 297 297 297 296 294 295 295 294 292 290 290 289 287 286 288 290 293 295 294 293 294 294 295 296 298 299 299 299 299 298 297 298 299 299 299 299 299 300 302 302 304 306 308 310 311 313 314 315 316 316 316 318 320 322 322 319 311 302 293 282 272 264 256 247 238
240 245 251 261 269 274 277 279 279 280 282 284 286 287 289 291 292 294 296 297 297 297 296 295 294 294 295 294 292 289 289 288 286 286 288 290 291 292 292 292 292 292 293 295 297 298 297 298 299 297 297 298 299 299 299 298 299 300 301 303 306 308 310 312 313 315 317 318 319 318 318 321 324 324 325 323 317 308 299 289 279 269 258 246 236
242 247 258 269 276 279 280 282 282 282 283 286 287 289 290 292 294 295 296 297 297 297 295 294 295 295 295 294 293 291 289 288 286 286 288 288 289 290 290 289 290 290 291 294 296 296 296 297 297 296 296 297 297 297 297 297 298 300 301 304 307 310 312 314 315 317 319 320 321 320 320 323 326 327 327 327 323 315 306 296 287 275 259 245 233
242 253 270 276 279 279 279 281 282 282 284 287 290 291 293 295 297 297 298 298 297 296 295 295 295 296 296 295 293 292 291 289 288 287 287 287 288 288 288 287 287 288 290 293 295 295 294 295 295 294 294 295 295 295 295 296 298 300 301 304 308 311 313 315 317 319 320 321 322 322 322 325 328 329 330 330 327 322 316 307 297 285 264 243 229
244 266 279 278 278 278 278 281 283 283 287 290 292 294 296 298 299 299 299 299 298 296 296 296 296 296 296 295 294 293 292 290 288 287 287 287 288 287 287 286 286 287 289 293 295 295 294 293 293 292 292 292 291 291 294 296 299 301 302 305 309 311 313 316 318 320 322 323 324 324 324 327 330 331 332 334 333 329 326 319 305 294 274 243 225
259 276 281 279 280 279 279 282 283 284 288 290 292 295 298 299 300 300 299 299 298 297 297 297 296 296 295 295 295 294 292 291 289 287 286 286 287 288 287 286 286 288 290 293 294 294 293 292 291 290 289 288 288 290 293 297 300 303 304 306 309 312 314 316 318 321 323 324 324 325 326 328 332 334 336 338 338 335 334 330 316 301 286 246 219
269 276 279 281 280 278 279 281 282 285 290 292 294 297 298 299 301 301 299 298 298 297 297 297 296 296 295 295 295 294 293 291 289 287 286 285 286 288 287 286 286 288 290 291 291 291 290 289 288 287 286 286 286 288 292 297 301 303 304 307 310 312 314 316 318 321 323 324 326 327 328 330 333 337 339 341 342 340 339 338 328 307 285 242 211
270 272 276 278 277 278 280 282 284 288 292 294 297 298 298 299 300 300 300 300 299 298 298 297 297 297 297 297 296 295 294 292 290 289 288 287 287 287 287 287 287 288 289 290 290 289 287 285 284 284 284 284 285 288 292 297 300 302 305 308 311 313 314 315 317 320 323 325 327 329 331 332 335 340 342 344 345 345 344 344 339 317 273 226 202
271 272 274 276 277 279 282 284 287 290 292 294 297 299 299 300 301 301 301 301 300 299 299 298 299 298 298 298 298 296 295 294 292 290 289 288 287 287 287 287 287 287 288 289 288 286 285 284 282 282 282 283 285 288 292 296 299 301 305 308 311 313 314 314 316 319 322 325 328 331 333 334 337 341 344 346 348 349 350 349 347 337 277 214 200
273 274 275 277 279 281 283 286 288 290 291 294 296 298 299 301 301 302 302 302 301 301 301 300 299 299 298 298 298 297 297 296 294 292 290 289 288 288 288 287 286 286 287 286 285 284 283 282 281 282 282 282 284 287 290 294 297 300 303 307 311 312 313 313 315 319 322 325 328 331 334 337 339 342 345 348 350 352 353 353 354 355 331 214 206
273 274 276 279 281 282 284 286 288 289 291 293 296 298 299 300 301 302 302 302 302 303 302 302 301 299 299 299 298 297 297 297 295 293 291 291 290 289 288 287 287 287 285 282 281 282 282 280 281 282 283 282 283 286 288 292 296 299 301 305 309 311 312 313 315 319 322 324 328 332 335 338 340 342 346 350 352 354 355 357 359 2 3 239 214
273 275 278 279 280 282 284 286 288 289 291 293 295 297 298 299 300 301 301 302 302 303 303 303 301 300 300 299 298 297 297 295 295 293 293 293 292 290 289 288 288 286 283 279 279 280 280 280 280 282 282 281 282 285 288 292 295 297 299 303 307 309 310 312 315 319 322 325 328 332 335 338 341 343 345 350 355 357 359 0 2 4 7 2 234
276 277 278 278 279 281 283 286 288 290 291 292 295 296 297 298 299 300 300 301 301 301 302 301 300 299 299 299 298 297 296 295 295 295 295 294 292 290 289 288 287 285 282 279 279 280 280 281 281 281 282 282 281 284 288 290 292 295 297 301 305 308 309 311 314 318 322 326 329 332 334 337 341 344 346 350 355 359 2 3 5 7 9 5 333
278 278 278 278 279 281 284 287 289 290 290 292 294 296 297 298 299 299 299 299 299 299 299 298 298 298 298 298 298 296 295 294 294 296 297 296 293 289 287 285 284 283 282 281 281 282 282 282 282 282 283 282 280 282 286 288 290 293 295 299 304 307 309 311 314 318 321 325 329 331 333 337 341 345 348 350 354 359 3 5 6 9 11 9 350
279 279 278 278 280 283 286 287 288 289 290 292 294 296 297 297 298 298 298 297 297 296 296 295 296 296 297 297 295 294 294 293 293 295 297 296 294 289 285 282 281 282 282 282 282 284 285 285 284 284 284 283 281 282 284 286 289 291 293 296 301 306 308 310 313 316 320 324 328 331 333 336 340 344 348 351 354 358 2 5 7 8 12 15 7
278 278 279 280 283 285 286 286 287 288 290 292 295 296 297 297 296 297 296 295 294 294 293 293 294 295 296 295 293 292 293 292 293 294 295 295 293 289 285 284 283 283 284 284 283 284 286 287 288 288 287 285 284 283 282 284 287 289 291 294 297 302 306 309 311 314 318 322 326 330 332 334 337 341 345 349 354 357 359 2 5 8 10 13 14
278 279 280 281 283 284 285 286 286 288 291 293 295 296 296 295 295 295 294 293 292 292 291 291 292 292 292 292 291 291 291 292 293 293 293 292 291 288 285 285 285 284 285 284 283 283 285 287 288 290 289 287 286 284 283 284 286 288 290 293 295 299 303 306 308 312 315 319 324 328 331 333 335 338 341 345 351 355 357 359 2 5 8 11 13
278 279 279 281 282 284 285 286 287 289 292 294 295 294 294 294 293 293 292 291 291 291 290 290 289 289 289 289 289 290 290 291 292 290 289 288 289 287 285 284 284 284 283 282 281 281 283 284 286 288 289 288 287 286 285 285 286 288 291 293 295 297 300 303 307 310 314 318 321 325 329 332 334 336 338 341 345 350 354 357 358 360 2 6 8
278 278 279 281 283 284 285 287 288 290 292 293 293 293 292 291 291 290 289 289 290 289 289 288 287 287 287 288 289 290 291 292 290 286 284 284 285 285 284 282 281 281 281 280 280 281 282 283 285 286 287 287 287 287 288 288 288 290 293 295 295 296 299 303 307 311 313 317 320 323 326 330 333 336 337 338 340 344 348 352 355 356 356 359 3
278 279 280 281 282 284 286 288 289 291 292 292 292 291 290 289 288 287 287 287 288 288 288 286 285 285 287 288 290 291 292 291 288 284 282 282 282 282 281 280 279 279 279 280 281 282 283 284 284 284 285 286 286 287 288 289 289 291 293 294 295 297 299 303 308 312 314 317 320 322 325 327 331 334 337 337 337 338 341 346 351 352 351 351 355
278 279 281 282 283 285 286 288 289 289 290 291 290 289 288 287 286 285 285 285 286 287 287 285 284 285 287 288 290 291 291 289 286 283 280 279 279 280 280 279 278 279 279 279 280 282 283 284 284 283 282 284 286 287 288 288 289 290 291 292 294 297 301 305 309 312 315 317 320 322 324 327 330 333 335 336 336 336 337 340 345 349 350 348 345
278 280 282 283 284 285 286 287 287 288 289 289 289 288 287 285 283 282 282 283 284 285 284 283 283 285 286 288 289 290 288 286 282 280 278 277 278 278 278 278 278 278 278 278 278 280 282 283 284 283 282 282 285 287 287 286 287 287 289 291 294 297 301 304 307 310 314 316 319 322 323 325 329 331 333 335 336 336 336 336 338 342 347 347 344
280 282 283 284 284 285 285 286 287 288 288 287 286 285 284 283 282 281 281 281 282 282 282 282 283 284 286 287 288 288 287 284 281 279 278 277 277 277 278 278 279 277 276 276 277 278 279 280 281 282 283 282 283 284 284 284 284 285 287 290 292 296 299 302 305 309 312 314 317 319 321 322 326 329 331 333 334 335 336 336 335 335 338 340 342
282 283 283 283 283 284 285 285 286 286 285 285 284 284 283 283 282 282 282 282 282 282 282 282 283 283 283 284 285 285 284 283 281 279 277 276 276 277 278 278 277 275 274 274 275 276 277 278 278 279 280 280 280 280 280 281 282 283 285 287 289 292 296 299 302 305 308 310 312 315 316 319 322 325 328 330 333 334 336 336 334 332 331 330 331
282 282 282 282 283 284 285 284 284 283 283 283 283 283 283 284 284 284 284 283 283 283 282 282 282 282 280 280 280 281 281 282 281 278 276 275 276 276 276 275 274 273 273 274 275 275 275 276 276 276 276 277 277 278 279 279 279 280 282 284 286 288 292 295 298 300 302 304 307 309 311 313 316 319 321 324 327 331 334 336 336 334 330 326 323
281 281 281 281 282 283 283 282 281 281 282 283 284 284 284 284 285 285 285 283 282 283 283 282 281 280 278 278 278 277 278 279 279 277 275 274 273 272 273 274 273 273 273 274 275 276 276 275 275 274 274 274 275 276 279 279 279 279 282 284 286 288 290 293 295 297 298 300 301 303 304 307 309 312 314 316 319 324 328 331 334 335 333 328 323
281 281 280 280 281 281 281 280 280 280 281 283 284 284 284 284 285 285 284 283 283 283 282 281 280 278 276 275 275 275 275 275 275 275 275 273 271 270 272 272 271 270 270 272 273 275 274 272 271 272 272 272 272 274 277 279 280 281 284 286 287 288 290 292 294 296 297 298 298 298 299 300 302 304 307 309 312 316 320 322 325 329 332 332 329
282 281 280 280 280 280 280 280 280 281 282 283 283 283 283 284 284 284 284 283 283 282 280 279 279 278 275 273 273 272 271 270 271 272 274 274 272 271 271 270 267 266 268 269 271 273 272 269 267 267 267 268 269 271 275 280 282 283 285 287 287 287 289 290 292 294 295 295 296 296 295 295 297 299 301 302 304 306 309 312 313 316 321 327 329
283 283 283 282 281 280 280 280 281 282 283 283 283 283 284 284 284 284 284 283 281 280 278 278 278 277 275 273 271 269 268 267 267 267 270 271 271 268 267 267 266 267 267 268 269 270 269 266 264 263 263 264 266 269 274 280 283 284 285 286 286 286 286 288 290 292 293 293 293 293 291 291 294 295 295 297 298 299 301 303 303 305 309 314 318
282 283 285 285 284 284 285 285 284 284 284 284 285 285 285 285 284 283 282 281 280 278 277 277 277 276 275 274 271 268 267 266 265 264 266 268 268 265 264 265 266 267 267 267 267 266 264 262 261 262 262 264 266 269 273 279 283 285 286 286 285 284 284 285 287 290 290 290 291 290 288 288 291 293 293 294 294 294 296 296 295 295 299 300 301